Showing default

LEGION 4, 60453

Orbit data source: Space-Track

LEGION 4, 60453 is a payload satellite owned by Maxar Intel (US) in LEO that was launched on Thu, 15 Aug 2024 UTC via an FALCON 9 launch vehicle from the Air Force Eastern Test Range (AFETR). Payload-class satellites include a variety of spacecraft equipped with specific instruments for various scientific and technological missions. These include communications satellites like Starlink; space stations such as the ISS; scientific satellites like the Hubble; Earth observation satellites from companies like Planet Labs, Umbra, and HawkEye 360; GPS; miniature CubeSats for education and research; and military/defense satellites.

Loading next visibility...
Identifier
60453, 2024-146B
Orbit
LEO
Country
Flag of USUS
Related business
Manufacturer
Maxar Space Inf
Mission
Operational Commercial Imaging
Bus & Motor
LEGION, Unknown motor
Mass
~700 kg wet, 630 kg dry
Launch date (UTC)
2024-08-15 (1 year ago)
Launch vehicle
FALCON 9
Launch site
Air Force Eastern Test Range (AFETR)
Object type
Payload
Rocket body
Debris
Shape & HBR
Box + 1 Pan, 1.5 m
Radar Cross Section
9.079 m², Large (>1 m²)

Expand to show TLE details & history
Last TLE update: 16 hours ago

TLE from 16 hours ago
0 LEGION 4
1 60453U 24146B   26023.46940311  .00007760  00000-0  41443-3 0  9995
2 60453  45.0012 178.2321 0011914 208.9429 151.0790 15.15598689 78911
Epoch: 2026-01-23T11:15Z
TLE epoch observation values (Epoch: 2026-01-23T11:15:56.428Z)
Latitude
-0.00001°
Longitude
-113.5608°
Altitude
526.354 km
Speed
7.598 km/s
True Right ascension
11h 52m 55s
True Declination
0° 00' 00"
Sunlit
Object was in full shadow at epoch
Visualization orbit readout
Latitude
Unknown
Longitude
Unknown
Altitude
Unknown
Speed
Unknown
Apparent Right ascension
Unknown
Apparent Declination
Unknown
Sunlit
N/A
Visualization observer readout
Local Sidereal Time
04:03:20
Azimuth
Unknown
Elevation
Unknown
Doppler factor
Unknown
Orbital elements
Apogee altitude
528.982 km
Perigee altitude
512.543 km
Semi-major axis
6,898.899 km
Eccentricity
0.00119
Inclination
45.0012°
RAAN
178.2321°
Arg. of periapsis
208.9429°
True anomaly
151.14494°
Mean anomaly
151.079°
Eccentric anomaly
151.11198°
Mean motion
3.78768 °/min
Orbital period
95.04 mins
BSTAR
0.00041443
Loading maneuver chart data...
Computing Atmospheric mass density...
Loading historical data...
Loading historical data...
Loading historical data...
Loading historical data...
Loading historical data...
Loading historical data...
Loading historical data...
Other satellites on launch #146 in the year 2024 (2024-08-15 UTC)

Documentation

Showing up to 5 results
|